Tracking 31011 objects as of 12-Jul-2025
HD Live streaming from Space Station
objects crossing your sky now

STARLINK-1458

Track STARLINK-1458 now!
10-day predictions
STARLINK-1458 is classified as:


NORAD ID: 45675
Int'l Code: 2020-035U
Perigee: 553.3 km
Apogee: 555.4 km
Inclination: 53.1 °
Period: 95.6 minutes
Semi major axis: 6925 km
RCS: Unknown
Launch date: June 4, 2020
Source: United States (US)
Launch site: AIR FORCE EASTERN TEST RANGE (AFETR)
Your satellite tracking list
Your tracking list is empty




NASA's NSSDC Master Catalog

Two Line Element Set (TLE):
1 45675U 20035U   25193.35590653  .00001070  00000-0  90710-4 0  9992
2 45675  53.0556  65.5180 0001466  87.2832 272.8325 15.06398988282474
Source of the keplerian elements: AFSPC